CAPE
180 407 686 710 552 512 650 811 1046 526 209 804 1362 1254 977 1263 909 655 390 1010 1265 1755 1865 1673 1282 1336 1722 1914 1896 1926 1945 2074 2132 2005 1836 1860 1885 1939 2034 1493 1335 1746 2357
37 202 694 606 623 578 628 1147 886 385 955 1043 844 1020 1353 1405 926 722 1001 1447 1220 1206 1441 1503 1664 1593 1828 1931 1892 1953 1973 2021 2026 2003 1714 1975 2040 2297 2160 2106 2056 1971 2069
13 264 619 387 576 444 418 1015 488 187 152 370 205 990 1402 1090 1442 1311 1423 1517 1543 1347 1293 1518 1681 1757 1844 1765 1885 2015 2115 1821 1668 1971 1736 807 1403 1906 1928 1994 2091 2330 2304
28 61 208 441 448 219 224 186 233 102 337 685 833 1027 1395 1276 1391 1327 1260 1472 1498 1422 1549 1546 1690 1750 1848 1950 1792 1615 1286 616 799 1230 1527 228 496 1699 1318 992 1079 1219 1017
89 79 63 328 347 446 305 210 276 173 757 1122 1168 1151 1141 1271 1441 1421 1184 1327 1209 1187 1238 1596 1534 1520 1589 1435 1369 1072 542 1009 1374 1578 979 1080 751 1600 2005 1829 1551 1410 1328
79 20 144 300 326 309 349 331 141 387 836 1063 1192 1005 1309 1394 1313 1515 1519 1356 1709 1822 1760 1805 1835 1866 1828 1524 1486 1036 1253 1595 1881 919 1404 1491 1524 1597 1171 811 675 679 661
38 38 79 210 178 42 63 221 521 322 381 841 752 1095 1223 1435 1506 1597 1468 1538 1119 1302 1726 1960 1882 1917 1909 1987 1693 1031 956 1300 1536 1219 1214 971 730 882 928 1039 1131 1190 1140
10 20 5 31 20 68 31 221 582 380 349 482 544 738 898 1066 1587 1737 1573 1362 1242 1383 1686 1746 2086 2171 2112 1867 1520 847 937 1187 1216 1398 1121 970 872 1071 1180 1183 1271 1494 1503
6 0 4 20 61 63 55 121 469 510 493 357 297 545 505 506 929 1534 1516 1373 1445 1564 1747 1579 1880 2301 2075 1983 1741 573 345 758 1206 1430 1358 1153 1045 1142 1089 1080 1334 1068 1408
81 18 5 4 63 132 156 93 158 114 158 101 133 293 1132 1605 1559 1689 1265 1557 1569 1762 1677 1252 1155 1269 1490 2044 1597 738 373 428 990 1215 911 502 1037 1461 1128 1200 1402 1532 1393
135 96 30 478 69 117 55 35 27 82 154 203 234 425 747 1071 618 898 935 1514 1601 1625 1289 824 661 778 933 899 1055 1308 1552 1221 813 1018 766 219 636 1494 1731 1834 1863 1871 1975
113 144 395 337 629 124 18 5 63 117 302 273 360 512 940 608 620 413 639 1020 1017 847 574 419 333 452 962 905 758 1140 1867 1028 732 872 574 130 271 746 633 1304 2219 2542 2560
81 131 341 357 106 281 481 73 89 309 138 233 410 496 286 387 145 226 434 530 523 626 473 528 600 1209 777 615 1090 1067 963 1044 802 747 375 238 286 466 658 1389 1741 2133 2285
82 163 495 329 131 64 523 170 489 694 569 658 407 287 391 306 259 209 466 441 389 660 508 442 489 888 1078 1303 1149 1261 1193 921 868 849 450 221 272 231 269 1180 1684 1746 1970
44 289 453 283 370 213 521 743 290 689 257 162 249 312 454 355 359 448 480 632 401 345 704 700 509 903 683 837 1021 1232 1128 1027 882 857 1179 390 306 267 322 695 1164 1536 1731
75 256 283 256 486 305 490 424 392 428 136 149 196 608 991 537 932 528 623 452 382 579 544 587 1072 625 499 326 606 1029 932 798 942 1101 1083 1207 676 692 598 497 641 942 1533
139 205 212 209 242 291 248 378 431 318 314 241 513 1100 1323 1330 2032 934 605 947 557 1157 1070 790 924 424 279 320 561 834 808 801 963 1173 1294 1294 1317 1095 1075 611 562 720 1619
198 343 245 202 408 273 327 631 388 365 236 263 277 1018 1401 1957 1631 1189 1137 1025 824 831 556 506 683 323 325 323 378 456 617 528 816 1165 1212 1352 1448 1664 1398 995 796 1115 1760
170 468 419 233 469 272 729 681 934 454 411 220 477 888 1326 1614 1783 1320 1170 1115 1561 557 536 539 328 549 283 262 194 234 329 396 830 607 896 1356 1527 1658 2357 1145 825 1450 999
172 469 580 270 662 465 726 1390 882 222 489 359 359 1083 1320 1392 1655 1628 1037 1472 1816 472 552 1281 792 566 653 270 218 222 304 437 465 407 696 822 1152 1301 1860 2358 2137 1139 615
260 426 676 491 1037 625 659 750 1074 734 559 323 426 1517 1394 1370 1640 1516 1124 1143 1120 1139 1702 1062 1413 943 285 366 300 186 206 264 258 521 631 688 761 809 1687 2005 2100 1787 1278
481 577 727 858 1209 906 672 780 676 588 486 619 742 1382 1455 1499 1609 1379 1729 1194 1439 1153 1305 1687 1881 1556 671 724 953 273 97 177 136 139 523 521 684 673 1363 1819 2063 2058 2099
802 851 991 1088 1237 1167 731 834 1060 887 1222 589 822 1152 1375 1577 1536 1642 1901 1703 1885 1246 1198 1723 1728 1840 1405 621 929 954 581 378 128 429 475 215 689 658 815 1713 1663 1875 1872
751 989 1204 1247 1331 1310 969 998 1179 759 499 456 750 854 1206 1559 1387 1532 1646 1701 1775 1399 1588 1418 1452 1767 1595 735 810 187 556 549 340 89 552 569 619 430 431 820 1110 1854 1749
687 976 1114 1518 1431 1279 1266 1307 1080 933 751 899 366 1100 1085 1811 1618 1446 1653 1960 2173 1671 1070 1895 2010 1955 1699 1025 721 979 715 215 484 66 13 282 1090 561 492 486 941 1177 1689
623 785 1007 1432 1640 1475 1259 1387 1207 1119 1026 904 729 898 997 1201 1591 1640 1674 1837 2084 1912 1228 1359 1931 2224 2066 2242 1382 1095 387 152 334 449 172 326 175 135 445 425 762 1086 1341
CIN
-19 -1 -0 -0 -3 -5 -3 -1 -2 -10 -32 -9 -0 -0 -2 -0 -0 -7 -17 -3 -3 -0 -0 -0 -2 -0 -0 -0 -0 -0 -0 -0 -0 -0 -0 -0 -0 -0 -0 -2 -12 -1 -0
-80 -31 -3 -2 -0 -3 -4 -0 -1 -10 -2 -6 -5 -0 -0 -1 -1 -8 -1 -0 -0 -0 -0 -0 -0 -0 -0 -0 -0 -0 -0 -0 -5 -6 -26 -4 -0 -0 -0 -2 -2 -0 -0
-72 -11 -0 -19 -4 -9 -15 -1 -5 -19 -21 -11 -19 -1 -0 -0 -0 -0 -0 -0 -0 -1 -2 -0 -0 -0 -0 -0 -0 -0 -0 -15 -19 -17 -11 -3 -2 -1 -6 -9 -1 -0 -0
-24 -62 -4 -14 -14 -22 -22 -26 -16 -53 -11 -3 -3 -0 -0 -0 -0 -0 -0 -0 -0 -0 -0 -0 -0 -0 -0 -0 -0 -4 -27 -63 -47 -45 -17 -21 -52 -9 -18 -40 -35 -26 -35
-25 -13 -69 -15 -18 -12 -18 -33 -17 -23 -1 -0 -0 -0 -1 -0 -0 -0 -0 -0 -0 -0 -0 -0 -0 -0 -0 -1 -11 -40 -85 -49 -48 -46 -1 -1 -10 -9 -0 -0 -1 -5 -7
-13 -9 -14 -5 -7 -10 -9 -11 -25 -10 -6 -0 -0 -2 -0 -0 -0 -0 -0 -0 -0 -0 -0 -0 -0 -0 -0 -0 -8 -47 -49 -50 -57 -1 -1 -11 -15 -18 -31 -41 -43 -46 -53
-2 -3 -23 -10 -10 -13 -27 -17 -4 -19 -18 -1 -5 -1 -2 -0 -0 -0 -0 -1 -7 -5 -0 -0 -0 -0 -0 -0 -7 -55 -76 -58 -4 -1 -1 -26 -86 -76 -60 -42 -29 -19 -21
-10 -4 -4 -10 -20 -9 -17 -9 -0 -10 -23 -14 -9 -5 -5 -2 -0 -0 -0 -4 -5 -1 -0 -0 -0 -0 -0 -5 -31 -106 -90 -68 -1 -0 -12 -59 -113 -82 -49 -42 -39 -18 -10
-38 -7 -17 -9 -14 -22 -16 -14 -0 -3 -6 -11 -29 -7 -24 -19 -8 -2 -0 -2 -2 -1 -0 -7 -6 -0 -7 -9 -50 -139 -150 -92 -2 -1 -5 -53 -114 -79 -68 -58 -35 -39 -19
-4 -14 -51 -33 -31 -21 -19 -11 -8 -35 -55 -41 -9 -11 -5 -0 -2 -0 -6 -1 -1 -0 -3 -21 -27 -32 -43 -32 -70 -131 -148 -115 -0 -5 -56 -127 -129 -64 -67 -47 -27 -22 -29
-12 -4 -76 -7 -68 -54 -84 -50 -81 -47 -18 -2 -12 -14 -14 -6 -6 -8 -8 -6 -4 -10 -22 -47 -64 -82 -99 -102 -95 -72 -80 -13 -16 -26 -61 -214 -158 -79 -34 -13 -13 -13 -11
-3 -9 -7 -10 -2 -28 -174 -46 -113 -64 -8 -11 -18 -15 -6 -12 -3 -2 -21 -34 -30 -37 -55 -82 -92 -96 -98 -30 -41 -68 -31 -10 -41 -41 -98 -254 -222 -135 -136 -58 -6 -2 -7
-2 -5 -4 -10 -41 -28 -1 -65 -65 -46 -36 -18 -15 -7 -2 -3 -9 -1 -27 -25 -19 -58 -18 -52 -59 -26 -1 -0 -3 -3 -13 -3 -4 -31 -142 -223 -202 -173 -150 -70 -41 -24 -24
-3 -2 -4 -5 -5 -19 -47 -1 -24 -19 -34 -7 -7 -1 -3 -2 -1 -1 -3 -0 -1 -2 -4 -2 -8 -1 -0 -8 -1 -1 -3 -1 -1 -3 -110 -196 -217 -224 -205 -101 -73 -59 -49
-9 -2 -5 -1 -0 -5 -4 -17 -113 -2 -1 -7 -11 -1 -1 -1 -1 -0 -2 -4 -2 -2 -2 -4 -2 -2 -19 -7 -1 -0 -3 -5 -4 -2 -14 -138 -167 -188 -182 -141 -100 -80 -59
-3 -3 -1 -2 -1 -1 -2 -2 -0 -2 -11 -11 -3 -4 -1 -2 -1 -3 -4 -3 -2 -0 -1 -2 -1 -6 -7 -25 -38 -2 -3 -19 -27 -12 -3 -54 -92 -106 -140 -164 -135 -96 -64
-2 -3 -1 -1 -1 -3 -3 -1 -1 -3 -0 -1 -1 -0 -0 -1 -2 -2 -1 -2 -1 -7 -6 -3 -6 -8 -2 -17 -33 -25 -10 -22 -3 -18 -2 -1 -31 -87 -94 -133 -145 -119 -64
-4 -1 -2 -1 -1 -3 -2 -1 -2 -2 -3 -2 -1 -0 -0 -0 -1 -1 -1 -3 -1 -2 -3 -1 -2 -2 -2 -3 -11 -12 -20 -19 -19 -4 -1 -10 -5 -13 -100 -105 -131 -102 -64
-8 -2 -3 -1 -2 -10 -0 -0 -3 -4 -1 -1 -2 -1 -0 -1 -5 -1 -1 -9 -8 -3 -1 -2 -2 -6 -4 -2 -15 -27 -29 -15 -4 -2 -8 -12 -3 -1 -22 -104 -112 -87 -97
-8 -5 -1 -1 -1 -3 -2 -4 -5 -4 -2 -1 -2 -1 -4 -0 -0 -4 -3 -2 -5 -2 -2 -6 -15 -5 -7 -3 -7 -9 -19 -15 -8 -3 -2 -2 -5 -1 -2 -7 -48 -77 -112
-35 -10 -1 -1 -1 -4 -3 -2 -2 -2 -2 -3 -2 -10 -1 -1 -1 -5 -2 -3 -5 -8 -9 -7 -4 -12 -9 -11 -19 -12 -12 -24 -1 -2 -6 -7 -12 -4 -1 -1 -2 -14 -62
-18 -2 -5 -1 -0 -2 -1 -1 -2 -3 -0 -2 -1 -5 -1 -1 -0 -2 -5 -4 -6 -2 -6 -0 -7 -5 -2 -2 -6 -3 -6 -3 -4 -5 -13 -23 -24 -10 -1 -10 -2 -9 -3
-6 -2 -1 -2 -1 -2 -1 -1 -1 -2 -7 -2 -2 -1 -1 -0 -0 -1 -1 -8 -10 -20 -2 -4 -3 -11 -15 -2 -14 -10 -5 -23 -73 -63 -16 -22 -32 -2 -5 -1 -1 -0 -4
-2 -2 -3 -1 -1 -1 -1 -1 -1 -2 -1 -2 -1 -1 -2 -0 -0 -0 -0 -9 -16 -4 -7 -1 -2 -12 -13 -3 -11 -11 -30 -48 -31 -23 -6 -15 -12 -18 -24 -2 -2 -10 -0
-2 -6 -4 -1 -1 -1 -0 -4 -2 -4 -3 -4 -4 -4 -3 -5 -0 -0 -0 -0 -0 -5 -7 -10 -2 -11 -3 -16 -7 -2 -6 -8 -4 -43 -10 -52 -16 -50 -15 -2 -3 -2 -3
-8 -4 -1 -1 -1 -1 -1 -7 -2 -1 -5 -3 -6 -2 -1 -2 -1 -3 -1 -1 -1 -1 -13 -9 -0 -0 -10 -9 -8 -9 -4 -3 -1 -139 -5 -1 -133 -78 -25 -7 -2 -2 -1
Wind_Speed
5 4 6 6 6 6 6 9 8 8 9 9 11 10 11 12 13 15 21 24 21 23 25 26 25 27 28 27 27 26 27 27 27 27 26 25 24 23 20 22 21 20 20
3 6 5 5 6 7 7 6 10 7 9 9 10 8 7 6 9 14 23 23 23 24 25 24 28 28 28 28 25 28 27 27 27 27 27 26 24 22 21 20 18 20 19
7 1 4 5 6 7 7 5 7 7 7 7 8 7 6 4 7 15 19 22 25 25 26 28 28 28 25 23 28 28 28 28 27 28 27 26 25 24 23 21 21 21 20
9 8 8 5 6 7 7 5 8 9 7 6 7 6 4 4 8 14 18 23 24 26 28 28 27 24 25 27 27 28 28 26 24 21 20 26 26 26 25 24 23 22 21
5 6 6 5 5 7 6 6 8 10 5 5 6 4 4 2 2 5 12 22 25 28 28 23 20 26 29 29 29 28 26 24 19 17 28 25 26 25 24 23 23 23 21
14 9 7 5 5 6 6 5 7 7 7 5 4 3 3 3 2 1 6 16 20 17 17 17 18 23 23 26 27 26 23 19 15 29 28 28 27 26 24 24 23 21 22
13 11 11 5 4 5 5 5 5 8 5 4 3 3 2 3 1 5 5 1 5 7 3 12 18 22 24 26 27 25 21 16 22 27 28 27 27 25 25 23 22 21 20
14 14 11 7 3 4 5 5 6 6 4 3 3 2 2 2 1 3 7 7 9 12 12 15 20 24 27 27 26 24 20 17 26 24 27 27 26 25 23 22 19 17 16
22 21 18 14 7 8 6 5 5 6 5 2 2 5 6 6 9 17 15 21 17 15 17 20 22 25 26 26 25 23 21 19 24 22 26 25 23 23 21 18 16 16 14
16 23 27 22 14 11 10 7 4 5 4 7 6 2 10 23 18 20 23 20 20 18 21 22 22 23 24 25 24 24 22 19 23 23 23 22 19 17 17 16 14 12 11
17 23 19 22 17 20 18 11 10 2 1 9 17 23 28 26 24 25 16 21 20 20 22 22 22 23 24 25 24 21 19 19 23 20 22 21 18 16 14 12 11 10 10
16 6 9 18 19 16 27 28 27 27 21 21 23 26 25 21 15 15 21 23 21 22 23 23 23 23 23 25 23 20 19 21 23 21 21 21 19 17 14 12 10 9 9
19 14 10 6 20 24 28 14 14 29 32 28 25 21 15 16 21 23 24 24 23 25 26 25 22 20 17 17 17 18 22 20 22 22 22 21 19 15 13 10 9 9 9
8 9 7 12 13 19 11 30 31 31 30 29 20 16 18 22 23 26 25 21 24 22 19 23 18 15 19 18 17 15 18 17 21 21 21 19 16 14 12 10 9 9 9
10 11 14 7 10 14 13 18 23 29 24 1 17 19 23 17 15 16 22 22 19 23 19 18 18 18 19 20 19 19 18 15 14 13 20 18 16 13 12 12 11 10 10
21 14 6 6 6 10 9 7 12 12 16 27 6 18 18 14 21 17 24 22 21 19 20 18 16 19 17 17 17 17 16 16 12 10 8 16 15 14 12 11 12 12 11
13 13 8 6 6 7 7 7 13 17 19 22 14 26 18 11 17 14 8 18 15 13 17 18 21 18 15 16 15 17 16 13 12 10 9 7 14 14 14 15 15 15 15
14 11 8 10 6 5 5 12 16 7 6 14 19 25 20 11 17 14 19 12 16 21 22 20 19 17 16 17 14 17 15 15 12 12 8 7 9 6 19 19 18 19 20
12 12 9 5 3 3 4 5 19 9 12 9 25 12 19 19 18 15 14 9 20 19 17 21 20 18 17 18 18 17 16 15 13 12 10 8 10 8 21 21 20 20 21
12 12 9 2 5 8 6 16 19 8 17 14 21 9 14 18 16 19 12 13 19 18 20 14 15 15 18 18 17 11 17 16 14 13 12 9 16 10 14 18 19 19 19
8 12 9 9 0 11 13 12 17 16 14 15 18 10 16 16 17 20 17 19 18 17 16 17 20 16 18 16 19 17 15 14 13 14 14 10 16 11 7 19 15 18 18
12 10 12 12 4 8 21 24 19 23 15 20 16 11 20 18 20 21 20 19 17 18 18 19 19 18 16 13 20 18 16 17 17 16 17 15 14 13 10 13 14 11 12
12 11 10 11 12 14 22 23 19 22 21 21 18 17 19 19 21 23 20 22 19 20 20 19 20 21 19 8 17 20 18 11 17 15 16 16 7 14 3 17 15 13 15
9 10 10 15 15 21 31 14 14 23 22 22 24 22 11 18 22 22 23 22 21 22 20 20 21 22 22 17 9 8 22 21 20 14 11 14 15 16 18 12 17 15 16
9 9 9 12 13 17 13 32 12 29 23 23 29 12 21 12 23 21 21 22 22 23 20 22 19 20 21 25 22 10 11 22 15 16 24 7 12 14 17 18 19 18 15
8 6 9 8 10 12 9 31 32 16 32 24 29 15 15 15 12 21 20 22 22 22 21 22 22 22 22 21 24 24 25 23 21 3 20 21 6 21 16 16 16 19 18
Wind_Direction
271 282 279 289 300 312 317 15 16 12 14 4 7 354 19 27 32 39 68 86 70 74 78 80 72 77 77 73 71 65 68 67 69 69 61 57 54 50 36 60 89 46 46
74 260 289 286 317 0 353 353 28 353 11 357 9 349 350 352 23 41 70 72 72 78 81 71 84 90 85 78 61 78 72 73 81 79 73 62 51 41 35 34 26 43 40
77 254 296 342 349 4 355 326 2 344 333 336 360 3 354 327 23 53 63 69 79 75 80 84 82 86 67 60 83 80 83 98 101 95 100 50 65 63 53 39 44 45 44
77 75 60 3 2 13 7 341 19 19 302 318 3 1 340 4 37 52 64 73 74 82 87 86 81 68 71 74 72 85 105 112 115 117 121 72 74 79 72 64 60 60 61
36 48 38 9 12 19 10 9 27 39 326 335 8 350 3 331 2 32 48 72 81 93 87 66 57 79 89 91 92 106 118 122 130 132 79 88 79 81 80 86 76 61 93
70 48 47 19 26 32 19 15 18 6 358 352 6 357 357 13 5 232 38 59 66 56 56 53 162 142 136 119 111 118 128 134 138 87 84 71 71 82 86 85 88 92 53
50 39 60 29 343 0 6 3 349 16 340 327 324 350 10 19 260 205 202 74 39 35 202 178 162 146 133 119 114 125 136 137 121 96 82 79 81 86 87 94 93 96 97
48 49 51 55 351 352 357 349 2 1 320 324 346 323 310 346 303 47 189 198 187 183 181 171 156 141 124 120 123 130 139 139 104 108 86 83 88 88 94 98 107 112 116
70 68 69 74 39 28 22 14 359 10 346 347 7 49 51 41 191 184 183 168 174 179 171 160 151 139 132 128 128 134 134 133 113 111 92 86 97 93 98 110 115 117 123
67 83 98 85 61 46 39 28 327 328 25 37 235 256 191 172 189 179 167 175 173 176 166 158 153 146 140 136 133 133 131 131 111 100 101 101 108 113 110 114 121 129 135
79 98 79 95 77 81 72 54 55 15 316 226 192 174 153 153 167 167 187 175 177 177 167 160 155 148 141 133 135 137 138 133 109 116 102 102 113 117 121 125 131 138 145
86 15 12 93 99 90 105 99 105 169 184 183 174 160 165 170 186 189 178 172 178 175 166 161 156 151 150 132 139 140 141 126 108 111 103 103 106 115 119 127 132 141 146
103 75 53 312 188 115 120 79 169 155 137 159 162 175 196 194 177 172 170 170 176 169 160 159 161 165 175 172 165 149 125 127 113 107 102 102 104 114 123 134 137 138 142
62 60 35 82 245 148 57 111 145 147 142 130 178 195 191 182 179 165 165 183 176 181 191 169 182 193 168 175 169 167 138 140 116 109 100 105 110 110 123 129 137 141 145
82 84 93 39 275 237 234 93 109 127 166 9 192 195 181 196 202 197 183 180 194 183 191 193 183 177 169 157 163 157 140 158 147 141 105 106 107 110 120 120 122 138 144
123 98 41 32 336 271 278 289 59 107 71 132 50 198 198 214 187 200 169 183 193 204 195 195 196 177 188 188 181 172 171 152 170 167 174 115 106 108 120 123 121 122 134
102 98 65 53 32 318 309 285 233 87 85 105 80 139 205 227 215 218 260 211 221 233 212 198 183 192 211 199 211 186 174 193 175 179 177 221 107 109 108 109 115 113 118
106 93 84 97 57 18 19 255 233 297 25 83 103 134 202 233 211 218 204 237 220 204 197 202 204 215 221 210 233 192 211 187 198 161 176 212 265 141 83 82 96 98 91
101 101 92 300 44 6 314 296 227 268 253 259 154 108 214 211 214 221 236 265 214 220 223 208 213 229 237 217 193 213 218 223 184 242 193 208 259 244 57 66 77 79 81
108 106 93 59 282 269 273 249 240 272 238 248 218 264 240 228 233 220 258 247 226 227 222 257 252 258 240 231 241 335 232 189 192 208 227 199 16 221 354 82 84 74 77
90 116 104 110 343 257 253 258 249 250 255 249 239 265 245 244 243 225 233 225 234 245 255 247 238 261 247 271 238 172 154 138 132 139 282 224 314 259 193 67 118 68 72
121 120 122 124 116 258 242 236 249 238 255 240 251 269 241 248 242 233 236 239 251 248 246 250 255 253 264 302 219 260 193 168 144 47 11 302 288 272 345 133 45 156 105
131 131 130 130 136 148 244 243 251 244 248 243 250 257 254 252 242 235 243 237 251 244 248 256 257 258 267 4 288 249 248 2 191 242 74 53 31 313 167 72 95 116 82
142 133 136 145 144 158 222 255 256 241 242 244 239 242 273 255 244 244 238 243 248 247 262 256 258 259 263 279 24 27 282 272 276 243 115 303 90 49 7 223 42 74 62
149 141 140 145 146 153 251 221 253 232 246 246 229 272 253 277 245 247 248 247 249 243 261 255 270 268 265 252 267 357 2 254 196 214 262 106 163 161 28 13 337 339 44
152 145 148 147 151 150 156 208 231 253 228 247 232 265 269 269 278 252 256 251 246 253 262 260 264 264 266 277 272 275 262 235 239 81 249 268 105 322 254 16 10 331 355